User: anonymous   Login
Location: Dziadowski
(50.3833°N, 20.0333°E)
Time: 22:18:26
(UTC+00:00)
Language:

Cosmos 962 Rocket - Orbit

View from above orbital plane
View from above orbital plane
View from above satellite
View from above satellite

Ground track
Ground track

The orbit is defined by the following mean orbital elements,

1 10461U          26069.38018597 +.00000000 +00000-0 +73841-4 0 00006
2 10461  82.9533 166.1585 0032491 222.5629 212.8043 13.77136763    07
Epoch (UTC): 10 March 2026 09:07:28
Eccentricity: 0.0032491
inclination: 82.9533°
perigee height: 950 km
apogee height: 998 km
right ascension of ascending node: 166.1585°
argument of perigee: 222.5629°
revolutions per day: 13.77136763
mean anomaly at epoch: 212.8043°

The dashed part of the orbit path shows where the satellite is in the earth's shadow,  

DLR